559  
ASUS43 KFSD 231710  
RWRFSD  
 
WEATHER ROUNDUP FOR SE SOUTH DAKOTA/SW MINNESOTA/NW IOWA  
NATIONAL WEATHER SERVICE SIOUX FALLS SD  
1200 PM CDT SUN APR 23 2017  
 
NOTE: "FAIR" INDICATES FEW OR NO CLOUDS BELOW 12,000 FEET WITH NO  
SIGNIFICANT WEATHER AND OR S TO VISIBILITY
.  
 
 
SDZ038>040-050-052>070-231800-  
SOUTHEAST SOUTH DAKOTA  
 
CITY SKY/WX TMP DP RH WIND PRES REMARKS
 
BROOKINGS PTSUNNY 65 34 31 SW16 29.97F  
CHAMBERLAIN MOSUNNY 67 36 31 SE23G30 29.91F  
HURON MOSUNNY 64 34 32 SW21G30 29.93F  
MADISON FAIR 63 32 31 SW21G28 29.98F  
MITCHELL CLOUDY 66 32 28 SW18G28 29.95F  
SIOUX FALLS PTSUNNY 65 40 39 S18G24 30.00F  
WINNER FAIR 66 34 30 S30G37 29.88F  
YANKTON MOSUNNY 66 30 26 S20G26 29.99F  

 
 
MNZ071-072-080-081-089-090-097-098-231800-  
SOUTHWEST MINNESOTA  
 
CITY SKY/WX TMP DP RH WIND PRES REMARKS
 
FAIRMONT SUNNY 66 34 30 SW13 30.05F  
JACKSON SUNNY 64 28 25 SW15 30.05F  
LUVERNE SUNNY 64 32 29 SW18 30.03F  
MARSHALL MOSUNNY 65 40 39 W12G17 30.00F  
MONTEVIDEO MOSUNNY 63 39 42 S5 30.01F  
PIPESTONE SUNNY 64 30 27 SW13G18 30.00F  
REDWOOD FALLS SUNNY 62 35 36 CALM 30.03F  
TRACY MOSUNNY 67 36 32 SW14G22 30.02F  
WINDOM SUNNY 66 30 26 S16G22 30.03F  
WORTHINGTON MOSUNNY 64 31 28 SW20 30.04F  

 
 
IAZ001>003-012>014-020>022-031-032-NEZ013-014-SDZ071-231800-  
NORTHWEST IOWA  
 
CITY SKY/WX TMP DP RH WIND PRES REMARKS
 
CHEROKEE SUNNY 64 36 35 S16 30.08S  
DENISON SUNNY 64 32 29 SW14 30.12F  
ESTHERVILLE SUNNY 64 31 28 SW16G22 30.06F  
LE MARS SUNNY 66 34 30 SW20G26 30.06F  
ORANGE CITY SUNNY 64 36 34 SW17G23 30.05F  
SHELDON SUNNY 64 32 29 SW15G26 30.03F  
SIOUX CITY SUNNY 68 33 27 SW17 30.07F  
SPENCER MOSUNNY 68 30 24 MISG 30.06F  
STORM LAKE N/A 64 28 25 SW18G24 30.08F  

 
 
ABBREVIATIONS USED IN REMARKS  
TC - TEMPERATURE IN CELSIUS  
WCI - WIND CHILL INDEX  
HX - HEAT INDEX  
VSB - VISIBILITY  
 
 
 
CLICK HERE TO GO TO PREVIOUS BULLETINS.

The Nexlab SD Page
The Nexlab IA Page
The Nexlab MN Page
The Nexlab NE Page Main Text Page